Weather History for KLWC - November, 2012

Change the Weather History Date:

Wednesday, November 21, 2012

  Actual Average Record
Temperature  
Mean Temperature 52 °F 41 °F  
Max Temperature 75 °F 53 °F - ()
Min Temperature 28 °F 29 °F - ()
Degree Days  
Heating Degree Days 13 24  
Month to date heating degree days 341 407  
Since 1 July heating degree days 797 771  
Cooling Degree Days 0 0  
Month to date cooling degree days 6 0  
Year to date cooling degree days 1780 1370  
Moisture  
Dew Point 36 °F    
Average Humidity 62    
Maximum Humidity 96    
Minimum Humidity 27    
Precipitation  
Precipitation 0.00 in 0.07 in - ()
Month to date precipitation 1.01 1.59  
Year to date precipitation 20.05 36.49  
Sea Level Pressure  
Sea Level Pressure 30.12 in    
Wind  
Wind Speed 8 mph (SSE)    
Max Wind Speed 24 mph    
Max Gust Speed 30 mph    
Visibility 8 miles    
Events      
T = Trace of Precipitation, MM = Missing Value Source: NWS Daily Summary

Daily Weather History Graph

Daily Weather History Graph

Search for Another Location

Airport or City:

Trip Planner

Search our weather history database for the weather conditions in past years. The results will help you decide how hot, cold, wet, or windy it might be!

Date:

Astronomy

Nov. 21, 2012 Rise Set
Actual Time 7:10 AM CST 5:02 PM CST
Civil Twilight 6:41 AM CST 5:31 PM CST
Nautical Twilight 6:09 AM CST 6:04 PM CST
Astronomical Twilight 5:37 AM CST 6:35 PM CST
Moon 1:16 PM CST (11/21) 12:34 AM CST (11/21)
Length of Visible Light 10h 49m
Length of Day
9h 51m
First Quarter, 62% of the Moon is Illuminated
Nov 21
First Quarter
Nov 28
Full
Dec 6
Last Quarter
Dec 13
New
Dec 19
First Quarter

Hourly Weather History & Observations

Time (CST) Temp. Windchill Dew Point Humidity Pressure Visibility Wind Dir Wind Speed Gust Speed Precip Events Conditions
12:52 AM 32.0 °F - 30.9 °F 96% 30.23 in 3.0 mi Calm Calm - N/A   Clear
1:52 AM 32.0 °F 28.7 °F 30.0 °F 92% 30.21 in 4.0 mi ESE 3.5 mph - N/A   Clear
2:52 AM 33.1 °F - 28.9 °F 85% 30.22 in 5.0 mi Calm Calm - N/A   Clear
3:52 AM 32.0 °F - 28.0 °F 85% 30.21 in 6.0 mi Calm Calm - N/A   Clear
4:52 AM 28.9 °F - 26.1 °F 89% 30.21 in 7.0 mi Calm Calm - N/A   Clear
5:52 AM 32.0 °F 28.7 °F 28.9 °F 88% 30.21 in 4.0 mi East 3.5 mph - N/A   Clear
6:52 AM 37.9 °F 33.5 °F 35.1 °F 89% 30.21 in 7.0 mi East 5.8 mph - N/A   Clear
7:52 AM 42.1 °F 39.2 °F 39.0 °F 89% 30.22 in 6.0 mi East 4.6 mph - N/A   Clear
8:52 AM 48.9 °F - 43.0 °F 80% 30.22 in 6.0 mi ESE 5.8 mph - N/A   Haze
9:52 AM 57.9 °F - 43.0 °F 58% 30.22 in 8.0 mi Calm Calm - N/A   Clear
10:52 AM 64.0 °F - 42.1 °F 45% 30.20 in 10.0 mi SSW 11.5 mph - N/A   Clear
11:52 AM 70.0 °F - 37.9 °F 31% 30.16 in 10.0 mi SSW 13.8 mph 21.9 mph N/A   Clear
12:52 PM 73.0 °F - 37.0 °F 27% 30.12 in 10.0 mi SSW 21.9 mph 27.6 mph N/A   Clear
1:52 PM 73.9 °F - 37.9 °F 27% 30.09 in 10.0 mi South 13.8 mph - N/A   Clear
2:52 PM 73.9 °F - 37.9 °F 27% 30.06 in 10.0 mi South 13.8 mph - N/A   Clear
3:52 PM 71.1 °F - 39.0 °F 31% 30.05 in 10.0 mi South 15.0 mph - N/A   Clear
4:52 PM 66.9 °F - 39.0 °F 36% 30.04 in 10.0 mi South 11.5 mph - N/A   Clear
5:52 PM 57.9 °F - 39.0 °F 49% 30.04 in 10.0 mi SSE 8.1 mph - N/A   Clear
6:52 PM 54.0 °F - 37.9 °F 55% 30.04 in 10.0 mi SE 8.1 mph - N/A   Clear
7:52 PM 50.0 °F - 37.9 °F 63% 30.03 in 10.0 mi SE 8.1 mph - N/A   Clear
8:52 PM 55.9 °F - 39.0 °F 53% 30.01 in 10.0 mi South 8.1 mph - N/A   Clear
9:52 PM 60.1 °F - 37.9 °F 44% 29.99 in 10.0 mi South 15.0 mph - N/A   Clear
10:52 PM 59.0 °F - 37.9 °F 46% 29.97 in 10.0 mi South 13.8 mph - N/A   Clear
11:52 PM 57.0 °F - 37.9 °F 49% 29.95 in 10.0 mi South 12.7 mph - N/A   Clear